USA 253

operational
NORAD ID: 40099 Int'l Des: 2014-043 Owner: AFSPC Country: US
HEOCIRCULAR

About USA 253

Description loading...

Live Position

Loading 3D Globe...

Upcoming Passes

Altitude History

Altitude vs Time

uPlot chart will show altitude changes over time

Two-Line Element Set

1 40099U 14043A 26062.62910762 -.00000089 00000-0 00000+0 0 9990
2 40099 5.2226 76.5201 0001358 161.1285 5.6983 0.96773332 26349
Epoch: Mar 3, 2026 • Age: 39 hours

Current Status

Altitude 36790.1 km
Velocity 3.04 km/s
Sub-Earth Point 2.15°N, 157.04°W
Launch Date Jul 28, 2014
Age 11.6 years
Type military

Technical Details

Classification Payload
Mass 500.00 kg
Dry Mass 500.00 kg
Total Mass 500.00 kg
Length 2.00 m
Diameter 2.00 m
Span 5.00 m
Shape Box + 2 pan
Manufacturer OSCD
Bus Type GeoStar-1
Phase Status In Orbit
Owner/State AFSPC/US

Large Constellations

Loading constellations...